Location: Beuerbach
(48.1459°N, 10.9174°E)
Time: 08:56:31
(UTC+00:00)

Cosmos 2228 Rocket - Pass Details

Date: 23 May 2024
Orbit: 616 x 648 km, 82.5° (Epoch: 15 June)

Event Time Altitude Azimuth Distance (km) Brightness Sun altitude
Exits shadow 00:05:22 50° 210° (SSW) 802 3.2 -20.2°
Maximum altitude 00:06:27 75° 280° (W) 659 3.1 -20.2°
Drops below altitude 10° 00:10:58 10° 6° (N) 2,034 6.9 -20.0°
Sets 00:13:14 0° 9° (N) 2,953 8.1 -19.9°
